User: anonymous   Login
Location: Montr�al
(45.5000°N, 73.5830°W)
Time: 11:27:00
(UTC-04:00)
Language:

Cosmos 1470 Rocket - Orbit

View from above orbital plane
View from above orbital plane
View from above satellite
View from above satellite

Ground track
Ground track

The orbit data is extracted from the following two-line orbital elements,

1 14148U 83061B   14296.04127850  .00000874  00000-0  10506-3 0  7908
2 14148 082.5175 096.1529 0020272 283.0533 216.6495 14.82754214691341
Epoch (UTC): 23 October 2014 00:59:26
Eccentricity: 0.0020272
inclination: 82.5175°
perigee height: 606 km
apogee height: 635 km
right ascension of ascending node: 96.1529°
argument of perigee: 283.0533°
revolutions per day: 14.82754214
mean anomaly at epoch: 216.6495°
orbit number at epoch: 69134

The dashed part of the orbit path shows where the satellite is in the earth's shadow,  

DLR